Погода в Больших Абакасах

Россия / Чувашская Республика     55°23′02″N   47°02′20″E
темп.,
°C
ветер,
м/с
пор.,
м/с
влажн.,
%
обл.,
%
осадки,
мм/ч
давл.,
гПа
погр.,
м
28 сентября, вт
вт2800:00+4всв71179100 0.0 1022825
03:00+3всв61080100 0.0 10241045
06:00+3св6118557 0.0 1026481
09:00+5св697174 0.0 1027655
12:00+8св68529 0.0 10271161
15:00+9св67475 0.0 10281399
18:00+4ссв35665 0.0 102979
21:00+3ссв347687 0.0 103069
29 сентября, ср
ср2900:00+2ссв22795 0.0 103137
03:00+1с228596 0.0 103128
06:00+1с228812 0.0 103236
09:00+5с3564100 0.0 1032383
12:00+8с345298 0.0 10311062
15:00+9с454743 0.0 10311308
18:00+5с336549 0.0 103124
21:00+4с2274100 0.0 103119
30 сентября, чт
чт3000:00+4ссз227884 0.0 103127
03:00+5сз358185 0.0 1031157
06:00+5ссз2588100 0.0 1032205
09:00+7ссз237999 0.0 1032348
12:00+9зсз237243 0.0 1032583
15:00+11сз4560100 0.0 10311121
18:00+8сз3775100 0.0 1030269
21:00+8зсз377972 0.0 1030305
1 октября, пт
пт100:00+7з3585100 0.0 1030132
03:00+8з378784 0.0 1030204
06:00+5зсз369710 0.0 1031135
09:00+10ссз467931 0.0 1031405
12:00+14ссз45586 0.0 1031897
15:00+14ссз45525 0.0 10301049
18:00+10сз23725 0.0 103122
21:00+8сз22805 0.0 103212
2 октября, сб
сб200:00+7сз22885 0.0 103211
03:00+7сз118980 0.0 103210
06:00+9сз2286100 0.0 103230
09:00+10ссз1383100 0.0 1033141
12:00+12сз2376100 0.0 1033387
15:00+12сз2375100 0.0 1033507
18:00+11зсз2283100 0.1 103320
21:00+11з1183100 0.1 103314